Wind_Speed
28 28 28 28 29 29 30 30 30 30 30 30 29 29 29 29 28 27 27 26 24 24 23 23 23 23 22 22 22 21 21 21 20 20 19 18 17 17 16 16 16 16 16 16 17 17 18 18 18 19 19 19 20 20 21 21 21 22 22 23 23 23 24 24 25 25 26 27 28 29 30 30 31 32 32 32 33 33 34 34 35 35 35 36 35 35
27 27 27 27 27 27 28 28 28 28 27 27 27 27 26 26 25 25 24 23 23 22 22 22 22 22 22 22 22 22 22 21 21 21 20 20 19 19 18 18 18 18 18 18 19 19 19 20 20 20 21 21 21 22 22 22 23 23 23 24 24 25 25 26 26 27 28 29 30 31 32 32 33 33 34 34 34 34 35 35 35 36 36 36 35 35
26 26 26 25 25 25 25 25 25 25 25 25 25 24 24 23 23 23 22 22 21 21 21 21 21 22 22 22 22 22 22 22 22 22 22 22 21 21 21 20 20 20 20 21 21 21 21 22 22 22 23 23 24 24 24 24 25 25 26 26 26 27 27 28 28 29 30 31 32 33 33 34 34 34 34 34 35 35 35 35 35 35 35 35 35 35
25 25 25 25 24 24 24 24 24 24 23 23 23 23 23 22 22 22 22 21 21 21 21 21 21 21 22 22 23 23 23 23 23 23 22 22 22 22 22 22 22 22 22 23 23 23 24 24 24 25 25 25 26 26 26 27 27 27 28 28 28 29 29 30 31 31 32 33 33 34 34 34 34 34 34 34 34 34 34 34 34 34 34 34 34 34
25 25 24 24 24 23 23 23 23 23 23 22 23 23 23 22 22 22 22 22 21 21 21 22 22 22 22 23 23 23 23 23 23 23 23 22 22 22 22 22 22 23 23 24 24 25 25 26 26 27 27 28 28 28 29 29 29 29 30 30 30 31 31 32 32 33 33 33 34 34 34 34 33 33 33 33 33 33 33 33 34 34 34 34 33 33
25 25 24 24 24 23 23 23 23 22 22 22 23 23 23 22 22 22 22 22 22 22 22 22 23 23 23 23 23 23 23 23 23 23 23 22 22 22 22 22 22 23 23 24 25 25 26 27 28 29 29 30 30 30 31 31 31 31 31 31 31 32 32 33 33 33 33 33 33 33 33 33 33 33 33 33 33 33 33 33 33 33 33 33 33 33
25 25 24 24 24 24 23 23 23 23 22 22 22 23 23 23 23 22 22 23 23 23 23 23 24 24 24 24 24 24 24 24 24 24 24 23 23 23 23 23 23 23 24 25 26 27 27 28 29 30 30 31 31 32 32 32 32 32 32 32 32 32 33 33 33 34 34 34 34 34 33 33 33 33 33 33 33 33 33 32 32 32 31 31 31 31
24 24 24 24 24 24 24 24 23 23 23 22 22 22 23 23 23 23 23 23 23 24 24 25 25 25 26 26 26 26 26 26 26 26 25 25 25 25 25 25 25 26 26 27 28 28 29 30 30 31 31 32 32 32 32 32 33 33 33 33 33 33 34 34 34 34 34 34 34 34 34 33 33 33 32 32 32 31 31 30 29 29 28 27 27 27
24 24 24 24 24 24 24 24 24 23 23 23 23 23 22 22 23 23 24 24 24 25 25 26 26 27 27 27 27 27 27 27 28 28 28 28 28 27 27 27 28 28 28 28 29 29 30 30 31 31 31 32 32 32 33 33 33 33 33 33 33 34 34 34 34 34 34 33 33 33 32 32 31 30 29 29 28 27 26 25 24 23 23 22 22 21
24 24 24 24 24 24 24 24 24 24 24 24 24 23 23 23 23 24 24 25 26 26 26 27 27 27 28 28 28 28 29 29 29 29 29 29 29 29 29 29 29 30 30 30 30 30 31 31 31 32 32 32 33 33 33 33 33 33 33 33 32 32 32 31 31 31 30 30 29 28 28 27 26 25 24 23 22 21 20 19 18 18 17 17 17 17
23 23 24 24 24 24 24 24 24 24 24 25 25 25 25 24 25 25 26 26 26 27 27 27 27 28 28 28 28 29 29 30 30 30 30 30 31 31 31 31 31 31 31 31 31 31 32 32 32 32 32 32 32 32 32 32 31 31 30 29 28 28 27 26 26 25 24 24 23 22 21 20 19 18 17 17 16 16 15 15 15 15 15 15 15 15
23 23 23 24 24 24 24 24 25 25 25 25 25 25 25 25 25 26 26 26 26 27 27 27 27 28 28 28 28 29 29 29 30 30 31 31 31 32 32 32 32 32 31 31 31 31 31 31 31 31 30 30 30 29 29 28 27 26 25 24 23 22 21 20 19 18 18 17 16 16 15 15 14 14 14 13 13 13 13 13 14 14 14 15 15 16
23 23 23 23 24 24 24 24 24 24 25 25 25 25 25 25 26 26 26 26 26 27 27 27 28 28 28 28 28 28 29 29 29 30 30 31 31 31 32 32 32 31 31 31 30 30 30 29 28 28 27 26 26 25 24 23 21 20 19 18 17 16 15 15 14 13 13 13 12 12 12 12 12 12 13 13 13 13 14 14 14 15 15 16 16 17
22 23 23 23 23 23 24 24 24 24 24 24 25 25 25 26 26 26 26 26 27 27 27 27 28 28 28 28 29 28 28 29 29 29 29 30 30 30 31 30 30 30 29 29 28 28 27 26 25 24 23 22 21 20 18 17 16 15 14 14 13 13 12 12 12 11 11 11 12 12 12 12 13 13 13 14 14 14 15 15 15 16 16 17 17 17
22 22 22 23 23 23 23 23 23 24 24 24 24 25 25 26 26 26 26 26 27 27 27 27 28 28 28 29 29 29 28 28 28 28 28 29 29 30 29 29 28 27 26 26 25 25 23 22 21 20 19 18 16 15 14 13 12 12 12 12 11 11 11 11 11 12 12 12 13 13 13 14 14 14 15 15 15 15 16 16 16 17 17 17 18 18
22 22 22 22 22 23 23 23 23 23 23 24 24 25 25 25 25 26 26 26 26 27 27 27 28 28 29 29 29 29 29 28 28 27 27 27 28 29 28 27 25 24 24 23 22 21 20 19 18 17 15 14 13 12 11 11 11 11 11 11 11 12 12 12 13 13 13 14 14 14 15 15 15 16 16 16 16 17 17 17 17 18 18 18 18 19
21 22 22 22 22 22 23 23 23 23 23 24 24 24 25 25 25 26 26 26 26 27 27 27 27 28 28 29 30 29 29 28 27 26 26 26 27 28 27 25 23 22 21 21 20 18 17 16 15 14 13 12 11 11 11 11 11 11 12 12 12 13 13 14 14 14 15 15 15 15 16 16 16 16 17 17 17 17 17 18 18 18 18 18 19 19
21 22 22 22 22 22 23 23 23 23 23 24 24 24 25 25 25 26 26 26 26 27 27 27 27 27 27 28 29 29 29 28 27 26 25 25 27 27 26 23 21 20 19 18 17 16 15 14 13 13 12 11 11 11 11 12 12 13 13 14 14 14 14 15 15 15 15 16 16 16 16 17 17 17 17 17 18 18 18 18 18 18 19 19 19 19
21 22 22 22 22 23 23 23 23 23 24 24 24 24 25 25 25 26 26 26 26 27 27 27 27 27 28 28 28 29 29 28 27 25 24 24 26 26 24 21 19 18 17 16 15 14 14 13 13 13 12 12 12 12 13 13 14 14 14 15 15 15 15 16 16 16 16 16 17 17 17 17 17 17 18 18 18 18 18 18 18 18 18 18 19 19
22 22 22 22 23 23 23 23 24 24 24 24 25 25 25 25 26 26 26 27 27 27 28 28 28 28 28 28 29 29 29 28 27 25 24 24 25 25 22 19 17 16 16 15 14 14 13 13 14 13 13 13 13 14 14 15 15 15 16 16 16 16 16 16 17 17 17 17 17 17 18 18 18 18 18 18 18 18 18 18 18 18 18 18 18 18
22 22 22 23 23 23 23 24 24 24 25 25 25 25 25 26 26 26 27 27 27 28 28 28 28 28 28 29 29 29 28 27 26 24 24 23 24 23 21 18 16 15 15 15 14 14 14 14 14 15 15 15 15 15 16 16 16 17 17 17 17 17 17 17 17 17 17 17 17 18 18 18 18 18 18 18 18 18 18 18 18 18 18 18 18 18
22 22 23 23 23 23 23 24 24 25 25 25 25 25 26 26 26 26 27 27 28 28 28 28 28 28 29 29 29 28 28 27 25 23 23 22 22 22 20 18 16 15 15 15 15 15 15 15 16 16 16 16 16 16 17 17 17 18 18 18 18 18 17 17 17 17 17 17 17 17 17 17 17 17 17 17 17 17 17 17 17 17 17 17 18 18
22 22 23 23 23 24 24 24 25 25 25 26 26 26 26 26 26 26 27 27 28 28 28 28 28 29 29 29 29 28 27 26 24 23 22 21 21 21 20 17 16 15 16 16 16 16 16 17 17 17 17 17 17 17 18 18 18 18 18 18 18 18 17 17 17 17 17 17 17 17 17 17 17 17 17 17 17 17 17 17 17 17 18 18 18 18
23 23 23 23 23 24 24 25 25 25 26 26 26 26 26 27 27 27 28 28 29 29 29 29 29 29 29 29 29 28 27 25 24 22 21 20 20 20 20 18 16 16 16 17 18 18 18 18 18 17 17 17 18 18 18 19 19 19 19 18 18 18 17 17 17 17 16 16 16 16 16 16 16 16 17 17 17 17 18 18 18 18 18 18 18 18
23 23 24 24 24 24 25 25 25 26 26 26 26 26 27 27 27 28 29 30 30 30 29 29 29 29 29 29 29 28 27 25 23 21 20 19 19 20 20 18 17 17 17 18 19 19 19 18 18 18 18 18 18 19 19 19 19 19 19 18 18 18 17 17 17 16 16 16 16 16 16 16 16 17 17 17 18 18 18 18 19 19 19 19 19 19
24 24 24 24 25 25 25 25 26 26 26 26 26 26 26 27 27 28 29 30 30 30 30 29 29 29 29 29 29 28 27 25 23 21 20 19 19 20 20 19 18 18 18 19 20 20 19 19 19 18 18 18 19 19 19 20 19 19 19 19 18 18 18 17 17 17 16 16 16 16 16 17 17 17 18 18 19 19 19 20 20 20 20 20 20 20
24 24 25 25 25 26 26 26 27 27 27 27 27 27 27 27 27 28 28 29 30 30 29 29 29 29 29 28 28 27 26 24 22 20 20 19 19 19 20 20 19 19 19 20 20 20 20 20 19 19 19 19 19 20 20 20 20 19 19 19 19 18 18 18 18 17 17 17 17 17 17 18 18 18 19 19 20 20 20 21 21 21 21 21 21 21
24 25 25 25 26 26 26 27 27 27 28 28 28 28 28 28 28 28 28 29 30 30 29 29 29 28 28 27 27 27 26 24 22 21 20 19 19 19 20 21 20 20 20 20 21 21 21 20 20 20 20 20 20 20 20 20 20 20 19 19 19 19 19 19 19 18 18 18 18 18 19 19 19 20 20 20 21 21 22 22 22 22 22 22 22 22
25 25 25 26 26 26 27 27 27 28 28 28 29 29 29 29 29 28 29 29 29 29 29 29 28 28 27 27 26 26 26 24 23 21 21 19 19 20 21 21 21 21 21 20 21 21 21 21 21 20 20 21 21 21 21 21 20 20 20 20 20 20 20 20 20 20 20 20 20 20 20 20 21 21 21 22 22 22 23 23 24 24 24 24 24 23
25 26 26 26 26 27 27 27 28 28 28 29 29 29 29 29 29 29 30 30 29 29 29 29 28 28 27 26 26 25 25 25 24 23 21 20 20 20 21 21 22 22 21 21 21 21 21 22 21 21 21 21 21 21 21 21 21 21 21 21 21 21 21 21 21 21 22 22 22 22 22 22 23 23 23 23 23 24 24 24 25 25 25 25 25 25
25 25 26 26 26 27 27 27 27 28 28 28 29 29 29 30 30 30 30 30 29 29 29 28 28 27 26 25 25 24 25 26 25 24 23 21 21 21 22 22 22 22 22 21 21 20 21 21 22 22 22 22 21 22 22 22 22 22 22 22 22 22 23 23 23 23 24 24 24 25 25 25 25 25 25 25 25 25 25 26 26 26 26 26 26 26
25 26 26 26 26 27 27 27 27 27 28 28 28 29 29 29 29 30 30 29 29 29 29 28 28 27 26 25 24 24 25 26 26 25 24 22 22 22 22 22 22 22 23 22 21 21 20 20 21 21 21 21 22 22 22 22 22 22 22 23 23 24 24 25 25 26 26 26 27 27 27 27 28 28 28 28 28 28 28 28 28 28 28 27 27 27
26 26 26 26 26 27 27 27 27 27 27 28 28 28 29 29 29 29 29 29 29 29 28 28 27 26 26 25 24 24 25 26 26 26 24 23 23 23 23 23 23 23 23 23 22 22 21 20 20 20 20 21 21 22 22 22 23 23 23 24 24 25 26 27 27 28 28 29 29 29 30 30 30 30 31 31 31 31 30 30 30 30 30 29 29 28
26 26 26 26 27 27 27 27 27 27 27 28 28 28 28 29 29 29 29 29 29 28 28 27 26 26 25 25 24 24 25 26 26 26 25 24 24 24 24 24 24 24 24 23 23 22 21 21 20 19 19 19 20 21 22 22 23 23 24 24 25 26 27 28 29 29 30 30 31 31 31 32 32 32 33 33 33 33 33 33 33 33 32 31 31 30
26 26 26 27 27 27 27 27 27 27 27 28 28 28 28 28 28 29 29 29 28 28 28 27 26 26 25 25 24 25 25 26 27 27 26 25 25 25 24 24 25 25 24 24 24 23 22 22 21 20 19 19 19 20 21 22 23 23 24 25 26 27 28 28 29 30 30 31 31 32 32 33 33 34 34 34 34 34 35 35 34 34 34 33 33 32
26 26 27 27 27 27 27 27 27 27 27 27 28 28 28 28 28 28 28 28 28 28 27 27 26 26 25 25 25 25 25 26 27 27 27 26 26 26 25 25 26 26 25 25 25 24 23 23 22 22 21 20 20 21 22 23 23 24 25 26 26 27 28 29 29 30 30 31 31 32 33 33 34 34 35 35 35 36 36 36 35 35 35 34 34 33
26 26 26 26 26 26 26 27 27 27 27 27 27 28 28 28 28 28 28 28 27 27 27 26 26 26 26 26 25 25 26 27 27 28 28 27 27 27 26 26 26 26 26 26 26 25 25 24 23 23 23 22 22 22 23 24 24 25 26 26 27 28 29 29 30 30 30 31 31 32 33 33 34 35 35 36 36 36 36 36 36 36 36 35 34 34
26 26 26 26 26 26 26 26 27 27 27 27 27 27 28 27 27 27 27 27 27 26 26 26 26 26 26 26 26 26 27 27 28 28 28 28 28 27 27 27 27 27 27 27 26 26 26 25 25 24 24 24 24 24 24 24 25 25 26 27 27 28 29 29 30 30 30 31 31 32 33 33 34 35 35 36 36 36 37 37 37 36 36 36 35 34
25 25 26 26 26 26 26 26 26 27 27 27 27 27 27 27 27 27 27 26 26 26 26 26 26 26 26 26 27 27 28 28 28 28 28 28 28 28 28 27 27 27 28 28 27 27 27 26 26 26 25 25 25 25 25 25 26 26 27 27 28 28 28 29 30 30 30 31 31 32 33 33 34 35 35 36 36 36 36 36 36 36 36 35 35 34
25 25 25 26 26 26 26 26 26 27 27 27 27 27 27 27 27 27 27 26 26 26 26 25 25 25 26 26 27 28 28 28 28 29 29 29 29 29 28 28 28 28 28 28 28 28 28 28 27 27 27 27 26 26 26 26 26 27 27 27 27 27 28 29 29 30 30 31 31 32 33 33 34 34 35 35 35 35 35 35 35 35 35 34 34 33
25 25 25 25 26 26 26 26 26 26 27 27 27 27 27 27 27 27 27 27 26 26 25 25 25 25 25 26 27 28 28 28 29 29 29 29 29 29 29 28 28 28 28 28 28 28 28 28 28 28 28 28 28 27 26 26 27 28 28 28 28 27 28 28 29 29 30 31 31 32 33 33 34 34 34 34 34 34 34 34 34 34 34 33 33 32
25 25 25 25 25 25 26 26 26 27 27 27 27 27 27 27 27 27 27 26 26 26 25 25 25 25 25 26 27 28 28 29 29 29 29 29 29 29 29 29 29 29 28 28 28 28 28 28 28 28 28 28 28 28 27 27 27 28 28 28 28 28 28 28 28 29 30 30 31 32 32 33 33 33 33 33 33 33 33 33 33 32 32 32 32 31
25 25 25 25 25 25 26 26 26 27 27 28 28 28 28 28 27 27 27 26 26 26 26 25 25 25 25 26 26 27 28 29 29 29 29 29 29 29 29 29 29 29 29 29 28 28 29 29 29 29 29 29 29 28 28 27 28 28 28 29 29 28 28 28 28 29 29 30 31 31 32 32 33 33 33 32 32 32 32 32 31 31 31 31 30 30
25 25 25 25 25 26 26 26 26 27 27 28 28 28 28 28 28 27 27 27 27 26 26 26 25 25 25 25 26 27 28 29 30 30 30 30 29 29 29 29 29 29 29 29 29 29 29 29 29 29 29 29 29 29 28 28 28 29 29 29 29 29 29 28 29 29 29 30 30 31 31 32 32 32 32 31 31 31 30 30 30 30 30 30 30 30
25 25 25 25 25 26 26 26 27 27 28 28 28 29 29 29 28 28 28 27 27 27 26 26 26 25 25 25 26 26 27 28 29 30 30 30 30 30 30 30 30 30 30 30 29 29 29 29 29 29 30 30 29 29 29 29 29 30 30 30 30 30 30 30 30 30 30 30 30 30 31 31 31 31 31 30 30 30 29 29 29 29 29 29 29 29
25 25 25 25 26 26 26 27 27 27 28 28 29 29 29 29 29 29 28 28 28 27 27 27 26 26 26 26 26 26 27 28 29 30 31 31 31 31 31 30 30 30 30 30 30 30 30 30 30 30 30 30 30 30 30 30 31 31 31 31 31 30 30 30 30 30 30 30 30 30 31 31 31 30 30 30 29 29 29 28 28 28 28 28 29 29
25 25 25 26 26 26 27 27 27 28 28 28 29 29 30 30 30 30 29 29 29 28 28 27 27 26 26 26 26 26 27 27 28 29 30 31 31 32 31 31 31 31 31 31 31 31 30 30 30 30 30 30 30 30 30 31 31 32 32 32 31 31 31 30 30 31 31 31 31 31 31 31 30 30 30 29 29 28 28 28 28 28 28 28 28 28
26 26 26 26 26 27 27 27 28 28 28 29 29 30 30 30 30 30 30 30 30 29 28 28 27 27 26 26 26 27 27 27 28 28 29 30 31 31 32 32 32 32 31 31 31 31 30 30 30 30 30 30 30 31 31 31 32 32 32 32 32 32 31 31 31 31 31 31 31 31 31 31 31 30 30 29 29 28 27 27 27 27 27 27 28 28
26 26 26 26 27 27 27 28 28 28 28 29 29 30 30 31 31 31 31 31 30 30 29 28 27 27 26 26 26 27 27 27 27 28 28 29 30 30 31 31 31 32 31 31 31 31 30 30 30 29 30 30 30 31 31 31 32 32 33 33 33 32 32 32 31 31 31 31 31 31 31 31 31 31 30 30 29 28 27 27 26 26 26 27 27 27
26 26 26 27 27 27 28 28 28 29 29 29 29 30 30 31 31 31 31 31 31 30 29 29 28 27 26 26 26 26 26 26 27 27 28 28 29 29 30 30 30 31 31 31 31 30 30 29 29 29 29 29 30 31 31 31 32 32 32 33 33 33 33 32 32 31 31 31 31 31 31 30 30 30 30 30 29 28 27 27 26 26 26 26 26 27
27 27 27 27 27 28 28 29 29 29 29 29 30 30 30 31 31 31 32 31 31 30 30 29 28 27 26 26 26 26 26 26 26 26 27 28 28 28 29 29 30 30 30 30 30 30 30 29 28 28 28 29 30 30 31 31 32 32 32 33 33 33 32 32 31 31 31 30 30 30 29 29 29 29 29 29 29 29 28 27 26 26 25 26 26 26
Wind_Direction
312 313 313 312 311 311 311 311 311 311 311 311 311 310 310 310 310 310 310 309 309 308 308 308 308 308 307 307 306 306 306 307 307 308 308 308 308 308 308 307 307 305 303 301 299 297 296 294 291 289 287 285 283 281 279 278 277 276 275 274 273 272 271 271 270 269 268 267 266 265 264 264 264 265 265 266 266 266 266 266 266 265 265 265 265 265
314 314 315 314 314 314 314 314 314 314 314 314 313 313 313 313 314 314 314 314 313 311 310 310 309 308 306 305 305 304 304 303 303 303 303 303 304 304 304 303 302 301 299 297 296 294 292 291 289 287 286 284 282 281 280 279 278 277 277 276 275 275 274 273 271 270 269 268 267 266 265 265 266 266 266 267 267 267 267 267 267 267 267 267 267 267
315 316 316 316 316 316 316 316 316 316 316 316 316 316 316 317 318 319 319 318 317 315 313 311 309 307 306 304 303 302 301 301 300 299 299 299 299 299 299 299 298 297 295 294 293 291 290 288 286 285 283 282 281 280 279 279 278 278 278 277 276 275 274 273 271 270 269 268 268 267 267 267 267 268 268 268 268 268 268 268 268 268 268 268 268 268
315 316 316 317 317 317 317 316 316 317 317 317 317 318 318 319 320 321 321 321 319 317 314 312 310 307 305 304 302 301 300 299 298 297 296 296 295 295 295 295 294 294 293 292 291 290 289 287 286 284 283 282 281 280 280 279 279 278 277 277 276 275 274 273 272 271 270 270 270 270 270 270 270 270 270 270 270 270 269 269 269 269 268 268 268 268
314 315 315 315 316 316 316 316 316 317 317 317 317 317 318 319 319 320 320 319 318 316 314 312 309 307 305 303 301 300 299 298 297 296 295 294 293 292 291 291 291 290 289 289 288 288 287 286 285 284 283 283 282 281 281 280 279 279 278 278 277 276 276 275 274 274 274 274 273 273 273 273 273 272 272 271 271 270 270 270 269 269 269 268 268 268
313 313 314 314 314 314 315 315 315 315 315 316 316 316 316 316 316 316 316 315 315 313 312 310 308 306 304 303 301 300 299 298 297 296 294 293 292 290 289 288 287 286 285 285 284 284 284 284 283 283 283 282 282 282 281 281 280 280 280 279 279 278 278 278 277 277 277 276 276 275 275 274 274 273 272 272 271 271 270 270 270 270 269 269 269 268
313 313 313 313 314 314 314 314 314 314 314 314 314 314 314 313 313 312 311 310 309 308 307 306 305 304 303 302 301 300 299 298 297 295 294 293 291 290 288 287 285 284 283 282 281 281 280 280 280 280 279 280 279 279 279 280 280 280 279 279 279 278 278 278 278 278 277 277 276 275 275 274 274 273 273 272 272 272 271 271 271 270 270 270 269 269
313 313 313 313 314 314 314 314 313 313 312 312 311 311 311 310 309 308 307 305 304 303 303 302 301 300 300 299 299 298 297 297 296 295 294 293 291 290 288 287 285 283 282 281 280 280 279 279 279 278 278 278 278 278 278 278 278 278 277 277 277 277 277 277 277 276 276 275 275 274 274 273 273 273 273 273 272 272 272 272 271 271 271 270 270 269
313 314 314 314 314 314 313 313 313 313 311 310 309 308 307 307 307 306 305 304 302 301 300 300 299 298 298 297 297 296 296 296 295 294 294 293 291 290 289 287 286 284 283 282 282 281 280 280 279 279 279 279 278 278 278 277 277 277 276 276 276 276 275 275 274 274 273 273 273 273 272 272 272 272 272 272 272 272 271 271 271 271 271 270 270 270
315 315 315 316 315 314 313 313 313 313 313 312 311 310 308 307 306 306 305 304 303 303 301 300 299 298 298 297 296 296 295 295 294 294 293 292 292 291 290 289 288 286 285 284 284 283 282 281 280 280 280 279 279 278 278 277 277 277 276 276 276 275 274 273 272 271 271 270 270 270 270 270 270 270 270 270 270 270 269 270 270 270 270 270 271 271
316 317 317 316 316 316 315 314 314 314 315 314 314 313 312 309 307 306 305 304 304 304 303 302 301 299 298 298 297 296 295 294 294 293 293 293 292 291 291 290 289 288 287 286 286 285 284 283 282 281 280 279 279 278 278 277 277 277 277 276 275 273 272 270 269 268 268 267 267 267 266 266 266 266 266 266 267 267 268 268 269 270 271 271 272 272
317 317 317 317 317 317 316 316 316 316 315 315 314 313 312 311 309 307 306 306 305 304 304 304 304 302 300 299 298 297 296 295 294 294 293 293 293 292 291 290 290 289 288 288 287 286 285 284 283 282 281 280 279 278 277 277 277 276 275 274 272 270 269 267 265 264 263 263 262 262 262 262 263 263 264 265 266 267 268 270 271 272 272 273 274 274
318 318 318 318 318 317 317 317 317 316 316 315 314 312 312 312 311 310 309 308 308 306 306 305 305 305 304 302 301 300 299 298 297 296 295 294 293 292 291 290 290 289 289 288 287 286 285 284 283 282 281 279 278 277 277 276 275 274 272 270 268 265 264 262 261 260 260 259 260 260 261 262 264 265 267 268 270 271 272 273 274 275 275 276 277 277
317 317 317 317 317 317 317 317 316 316 316 316 315 315 314 314 314 313 313 312 311 310 309 307 306 306 306 305 303 302 301 300 300 299 298 296 295 293 291 290 290 290 289 288 287 286 285 284 283 281 280 278 277 276 275 273 271 269 266 264 262 261 260 260 260 261 261 262 264 265 267 268 270 271 273 274 275 276 277 277 278 278 279 279 279 280
316 316 316 316 316 316 317 317 317 317 317 317 317 316 316 316 316 315 315 313 313 312 311 311 310 309 308 307 305 304 303 302 301 300 299 297 295 293 292 291 291 291 289 288 286 285 284 282 281 279 277 276 274 273 270 268 265 263 261 260 260 260 261 262 264 265 267 268 270 271 273 274 275 276 277 278 279 279 280 280 280 281 281 281 282 282
316 316 316 316 316 316 316 317 317 317 318 317 317 317 317 317 317 316 316 315 314 314 313 312 311 311 309 309 308 306 305 304 303 302 300 298 295 294 293 293 293 292 289 287 285 283 282 280 278 276 274 272 270 267 264 262 260 259 259 260 261 262 264 265 267 268 270 271 272 273 275 276 277 277 278 279 279 280 280 281 281 281 281 281 281 281
316 316 316 316 316 316 317 317 317 318 318 318 318 317 317 317 317 317 316 316 315 314 313 312 311 310 309 309 309 308 306 305 304 303 301 297 294 293 294 294 294 291 287 284 282 281 279 276 274 272 270 267 265 263 261 260 260 260 260 262 263 264 266 267 268 269 270 272 273 273 274 275 276 277 277 278 278 278 279 279 279 279 279 279 279 279
316 315 315 315 315 316 316 317 317 317 317 317 318 317 317 317 317 316 316 316 315 313 313 312 311 310 309 307 306 307 306 305 304 303 300 296 294 293 294 294 292 288 284 281 279 277 274 272 269 268 266 264 263 262 261 261 262 262 263 264 265 266 267 268 269 270 271 272 272 273 274 274 275 275 275 276 276 276 276 276 276 276 276 276 276 276
315 315 315 315 315 316 316 317 317 317 317 317 317 317 317 317 316 316 316 315 314 313 312 312 311 310 309 308 307 306 306 305 304 302 299 294 292 292 293 292 288 284 280 277 274 272 269 267 266 266 265 265 264 264 264 264 264 265 265 266 267 267 268 269 270 271 271 272 272 273 273 274 274 274 274 274 274 274 274 274 274 274 274 274 274 274
315 315 314 314 315 315 316 317 316 316 316 316 316 317 317 317 317 316 316 315 314 313 313 312 311 311 310 308 307 306 305 304 303 300 297 292 291 291 291 289 284 279 276 273 270 268 266 266 266 266 266 266 266 266 266 266 266 266 267 267 267 268 268 269 270 270 271 271 272 272 272 272 272 272 272 272 272 272 272 272 273 273 273 274 274 274
314 314 314 314 314 315 315 315 315 315 315 315 316 316 317 317 316 316 315 314 313 313 313 312 311 310 308 307 305 305 304 303 301 298 294 291 289 289 289 285 279 275 272 270 268 266 266 266 267 267 268 268 268 268 268 267 267 267 267 267 267 268 268 268 269 269 269 270 270 270 271 271 271 271 271 271 272 272 272 273 273 274 275 275 276 276
313 314 313 314 314 314 315 314 314 314 315 315 315 316 316 316 315 314 313 313 312 311 311 310 309 308 307 305 305 304 303 301 298 295 291 289 287 286 285 281 276 272 270 269 268 267 267 267 268 269 269 269 269 269 268 268 268 268 267 267 267 267 267 267 268 268 268 268 269 269 269 270 270 271 271 272 273 274 274 275 276 277 278 279 279 280
313 313 313 313 313 313 314 314 314 314 314 314 314 314 314 314 314 313 312 311 310 310 310 310 309 308 307 306 305 304 302 300 296 293 289 285 282 282 282 278 274 271 269 270 270 269 269 269 270 270 270 270 269 269 269 268 268 268 267 267 267 267 267 267 267 267 268 268 269 269 270 271 272 273 274 275 276 278 279 280 281 282 282 283 283 284
313 313 313 313 313 313 313 313 313 313 313 313 313 314 314 313 313 312 311 311 311 310 311 310 309 308 306 305 304 302 301 298 294 290 286 282 279 278 278 276 273 271 271 271 272 272 272 271 271 271 270 270 269 269 269 268 268 268 268 268 268 268 268 268 268 268 269 269 270 271 273 274 275 277 278 280 281 282 283 284 285 285 286 286 286 286
313 313 313 313 313 313 313 312 312 312 312 312 313 313 313 313 312 312 312 311 311 311 311 310 309 307 305 304 302 301 299 296 292 287 283 279 276 275 276 274 273 272 272 273 273 273 273 272 272 271 270 269 269 269 269 269 269 269 269 269 269 269 269 269 270 270 271 272 273 275 276 278 279 281 282 283 285 285 286 286 287 287 287 287 288 288
314 314 314 314 313 313 313 313 313 313 313 312 313 313 313 312 312 312 312 311 311 311 310 309 308 306 304 303 301 299 297 294 290 284 279 276 274 274 275 275 274 273 273 274 275 275 274 273 272 271 270 269 269 269 269 269 270 270 271 271 271 271 272 272 273 274 275 276 277 279 280 281 282 284 285 286 286 287 287 287 287 288 288 288 288 288
314 314 314 314 314 314 314 314 314 313 313 313 313 313 313 313 313 312 311 310 310 310 309 308 306 305 303 302 300 297 295 292 287 282 277 274 273 273 275 275 276 275 275 275 276 276 275 274 273 272 271 270 270 270 270 270 271 271 272 273 273 274 275 276 276 278 278 280 281 282 283 284 285 286 286 287 287 288 288 288 288 288 288 288 288 288
316 316 315 315 315 315 315 315 315 315 315 315 315 314 314 314 313 312 311 310 310 309 308 307 306 304 302 300 297 295 293 290 285 279 275 274 273 273 275 276 277 277 276 276 276 276 276 275 274 273 272 272 271 271 271 272 273 273 274 275 276 277 278 279 280 281 282 283 284 284 285 286 286 287 287 288 288 288 288 288 288 288 288 288 288 289
317 317 317 316 316 316 316 316 316 315 315 315 315 315 315 315 314 313 312 311 310 309 308 307 305 303 301 298 296 293 291 287 283 279 275 274 273 274 275 276 277 277 277 276 276 277 277 276 276 275 274 274 274 274 274 275 275 276 277 278 279 280 281 282 284 285 286 286 287 287 287 288 288 288 288 288 288 288 289 288 288 288 288 288 289 289
318 318 317 317 317 316 316 316 316 316 316 316 316 316 316 315 315 314 313 312 311 310 309 307 305 303 301 298 295 292 288 286 283 280 277 275 275 275 276 277 277 277 277 276 276 276 277 277 277 277 276 276 276 277 277 278 279 280 281 282 284 284 285 286 287 288 289 290 290 290 290 290 290 289 289 289 289 289 289 289 288 288 288 289 289 289
318 317 317 317 316 316 316 316 316 316 316 316 316 316 316 316 315 315 314 313 312 311 309 307 305 303 300 297 293 289 286 285 284 282 279 278 277 277 277 277 277 277 277 276 275 274 275 277 278 278 278 278 279 280 280 281 282 284 285 287 288 289 289 290 291 291 292 292 292 292 292 292 292 291 291 291 290 290 290 289 289 289 289 289 289 289
318 317 317 317 316 316 316 316 316 316 316 316 316 316 316 316 315 314 314 313 312 311 309 307 305 303 300 296 292 287 284 284 283 282 281 280 279 278 278 278 278 278 277 276 275 274 273 275 277 279 280 281 282 282 283 284 285 287 288 289 290 291 292 292 293 294 294 294 294 294 294 294 294 294 294 294 293 293 292 292 291 291 290 290 289 289
318 317 317 317 317 317 317 317 317 317 317 317 317 317 316 316 315 314 314 313 312 311 309 307 305 302 299 296 292 288 284 283 282 282 282 281 280 280 280 280 279 278 278 277 276 275 273 273 274 276 278 281 282 283 284 285 286 287 289 290 291 292 292 293 294 295 295 296 296 296 296 296 296 296 296 296 296 295 295 294 294 293 293 292 291 291
318 318 317 317 317 317 317 317 318 318 318 318 317 317 317 316 316 315 314 313 312 310 309 307 304 301 298 295 292 288 285 283 283 283 283 282 282 281 281 280 280 279 278 277 277 276 275 274 273 273 274 276 279 280 282 283 285 286 287 288 289 290 291 292 293 294 294 294 295 295 295 295 295 296 296 296 296 296 296 295 295 294 294 294 293 292
318 318 318 317 317 317 318 318 318 318 318 318 318 318 317 317 316 315 314 313 312 310 309 307 304 301 298 294 291 288 285 284 284 284 283 283 282 282 281 281 280 280 279 279 278 278 277 276 275 273 272 271 272 274 276 278 280 282 283 284 285 286 287 288 288 289 290 291 291 291 292 292 293 293 294 294 294 294 294 294 294 294 294 294 294 293
318 318 317 317 317 318 318 318 318 318 318 318 318 318 318 317 316 315 314 313 312 310 308 306 304 301 298 295 291 288 285 284 284 284 284 283 283 282 282 281 281 280 280 280 279 279 279 278 277 276 274 271 269 270 271 273 275 277 278 280 281 281 282 283 284 285 285 286 287 288 289 289 290 291 292 292 293 293 293 293 293 293 293 293 293 293
318 317 317 318 318 318 318 319 319 319 319 319 318 318 318 317 316 315 314 313 312 310 308 306 304 301 298 295 292 289 286 285 284 284 284 283 283 283 282 282 281 281 281 281 280 280 280 279 278 277 276 274 272 270 270 272 274 275 277 278 279 280 280 281 282 282 283 283 284 285 286 287 288 289 290 291 291 292 292 292 293 293 293 292 292 292
318 317 317 318 318 318 319 319 319 319 319 319 318 318 317 317 316 315 314 313 311 310 308 306 304 301 298 295 292 289 287 285 284 284 284 284 284 283 283 282 282 282 281 281 281 281 280 279 278 277 276 275 274 273 273 273 274 275 276 277 278 279 280 280 280 281 281 281 282 283 284 284 285 287 288 288 289 290 291 291 291 291 292 292 292 292
317 317 317 318 318 319 319 319 319 319 319 319 319 318 317 317 316 315 314 313 311 310 308 306 304 301 299 296 293 291 288 287 286 285 285 284 284 284 284 283 283 282 282 282 281 281 280 280 279 278 277 276 276 276 276 276 277 277 277 277 278 278 279 279 280 280 280 280 281 281 282 283 284 285 286 286 287 288 288 289 289 290 290 290 290 291
317 318 318 318 319 319 319 320 320 320 320 319 319 318 317 317 316 315 314 313 312 310 308 307 304 302 299 297 294 292 290 288 287 286 286 285 285 285 285 284 283 283 282 282 281 281 280 280 279 279 278 277 277 277 277 278 278 278 278 278 278 277 278 278 278 279 279 279 280 281 281 282 283 283 284 285 285 286 286 286 287 287 288 288 288 288
318 318 318 319 319 320 320 320 320 320 319 319 319 318 317 316 316 315 314 313 312 310 309 307 305 303 300 298 295 293 291 290 288 287 286 286 286 286 285 285 284 283 282 281 281 280 280 280 279 279 279 279 279 279 279 279 279 279 279 279 278 277 277 277 278 278 278 279 279 280 281 281 282 283 283 284 284 284 284 284 284 284 285 285 286 286
318 318 318 319 319 320 320 320 320 320 320 319 318 318 317 316 316 315 314 313 311 310 309 308 306 304 302 299 297 294 293 291 290 288 287 287 286 286 285 284 284 283 282 281 280 280 280 280 280 279 279 279 279 280 280 280 280 280 280 280 279 279 278 278 278 278 279 279 280 280 281 281 282 282 282 283 283 283 283 282 282 283 283 283 283 283
318 318 318 319 319 320 320 320 320 320 320 319 319 318 317 316 316 315 314 313 311 310 309 308 306 304 302 300 298 296 294 293 291 290 288 287 286 285 285 284 283 282 281 281 280 280 279 279 279 280 279 280 280 280 281 281 281 281 281 281 281 281 280 279 279 279 280 280 281 281 281 282 282 282 282 282 282 281 281 281 281 281 281 281 281 281
318 318 319 319 319 320 320 320 320 320 320 319 318 318 317 316 315 315 314 313 311 310 309 308 307 305 303 301 299 297 295 294 292 291 289 288 286 285 284 283 283 282 281 281 280 280 280 279 279 279 280 280 281 281 282 282 282 282 282 282 283 283 282 282 281 281 281 281 282 282 282 282 282 282 281 281 281 281 281 281 280 280 280 280 281 281
318 318 319 319 319 320 320 320 320 320 319 319 318 318 317 316 315 314 313 312 311 310 309 308 307 306 304 302 299 297 296 294 293 292 291 289 288 286 285 284 283 282 282 281 281 281 280 280 280 280 281 281 282 283 283 283 283 283 283 284 284 284 284 284 284 284 283 283 283 283 283 283 282 282 281 281 281 281 280 280 280 280 280 281 281 281
318 318 319 319 319 319 320 320 320 320 319 319 318 317 317 316 315 314 313 312 311 310 309 308 308 307 305 303 301 298 296 295 294 293 292 291 290 288 287 286 285 284 283 283 282 282 282 282 282 282 282 283 283 284 284 284 284 284 284 285 285 286 286 286 287 287 286 286 285 285 284 284 283 283 282 281 281 280 280 280 280 280 280 280 280 281
317 318 318 318 319 319 319 319 319 319 319 318 318 317 317 316 315 314 312 311 311 310 309 309 308 307 306 304 302 300 298 296 295 294 293 292 292 291 290 289 288 287 286 285 284 284 284 284 284 284 284 284 284 284 285 285 285 286 286 286 286 287 287 288 288 288 288 288 287 286 286 285 284 283 282 281 281 280 280 280 280 280 279 279 279 279
316 317 317 318 318 318 319 319 319 318 318 318 317 317 316 315 314 313 312 311 310 310 309 309 309 308 307 305 303 302 300 298 297 295 294 294 293 293 293 292 291 290 289 288 288 287 287 286 286 286 286 286 286 286 285 286 286 287 287 288 288 288 289 289 289 289 289 288 288 287 286 286 285 284 282 281 280 280 280 279 279 279 279 278 278 278
316 316 317 317 317 318 318 318 318 318 317 317 317 316 316 315 314 313 312 311 310 310 310 309 309 308 307 306 305 303 302 300 299 297 296 295 294 294 294 293 293 293 292 291 291 290 290 289 289 289 289 289 288 288 287 287 287 288 288 289 289 289 290 290 289 289 289 288 287 287 286 286 285 284 283 282 281 280 279 279 278 278 278 277 277 277
315 316 316 316 317 317 317 317 317 317 317 317 316 316 315 315 313 312 311 310 310 310 310 309 309 308 308 306 305 304 303 302 300 299 297 296 295 295 294 294 293 293 293 293 292 292 292 291 291 291 291 291 290 289 288 288 288 288 288 289 289 290 290 289 289 288 288 287 286 286 286 285 285 285 284 284 283 281 280 279 278 278 277 277 277 276
315 315 316 316 316 316 317 317 317 317 317 317 316 316 315 314 313 312 311 311 310 310 310 309 309 309 308 307 306 305 304 302 301 300 298 297 296 295 295 294 294 293 293 293 292 292 292 292 292 292 291 291 290 289 288 288 288 287 287 288 288 289 289 289 288 288 287 286 286 286 286 285 285 285 285 285 284 283 282 280 279 279 278 278 277 276
Height
3069 3068 3067 3066 3065 3064 3063 3062 3061 3060 3059 3059 3058 3057 3056 3055 3054 3053 3053 3052 3051 3051 3050 3050 3049 3049 3049 3048 3048 3048 3047 3047 3046 3046 3045 3044 3044 3044 3043 3043 3043 3043 3043 3043 3043 3043 3043 3043 3043 3043 3043 3043 3043 3043 3043 3043 3043 3044 3044 3044 3044 3044 3044 3044 3044 3045 3045 3045 3045 3046 3046 3046 3047 3047 3047 3048 3048 3048 3048 3049 3049 3049 3050 3050 3051 3051
3067 3066 3065 3064 3063 3063 3061 3060 3059 3058 3058 3057 3056 3055 3054 3053 3053 3052 3051 3050 3050 3049 3049 3048 3048 3048 3047 3047 3047 3046 3046 3045 3045 3044 3044 3043 3043 3043 3043 3042 3042 3042 3041 3041 3041 3041 3041 3041 3041 3041 3042 3042 3042 3042 3042 3042 3042 3042 3042 3042 3042 3042 3042 3042 3043 3043 3043 3043 3043 3043 3043 3044 3044 3044 3044 3045 3045 3045 3046 3046 3046 3047 3047 3047 3048 3048
3066 3065 3064 3063 3062 3061 3060 3059 3058 3057 3056 3055 3054 3053 3053 3052 3051 3050 3050 3049 3048 3048 3047 3047 3047 3046 3046 3045 3045 3045 3044 3044 3043 3043 3043 3042 3042 3042 3041 3041 3041 3040 3040 3040 3040 3039 3039 3039 3040 3040 3040 3040 3040 3040 3040 3040 3040 3040 3040 3040 3040 3040 3040 3040 3040 3040 3040 3041 3041 3041 3041 3041 3042 3042 3042 3042 3042 3043 3043 3043 3043 3044 3044 3044 3045 3045
3064 3063 3062 3062 3061 3060 3059 3058 3057 3056 3055 3054 3053 3052 3051 3051 3050 3049 3048 3048 3047 3047 3046 3046 3045 3045 3044 3044 3043 3043 3043 3043 3042 3042 3042 3041 3041 3040 3040 3040 3039 3039 3039 3038 3038 3038 3038 3038 3038 3038 3038 3038 3038 3038 3038 3038 3038 3038 3038 3038 3038 3038 3038 3038 3038 3038 3038 3038 3038 3038 3038 3039 3039 3039 3039 3039 3039 3040 3040 3040 3040 3041 3041 3041 3042 3042
3063 3062 3061 3060 3059 3058 3058 3056 3055 3054 3053 3053 3052 3051 3050 3049 3048 3048 3047 3047 3046 3045 3045 3044 3044 3043 3043 3043 3042 3042 3042 3041 3041 3041 3040 3040 3040 3039 3039 3038 3038 3038 3038 3037 3037 3037 3037 3036 3036 3036 3036 3036 3036 3036 3036 3036 3036 3036 3036 3036 3035 3035 3035 3035 3035 3035 3035 3035 3035 3036 3036 3036 3036 3036 3036 3036 3037 3037 3037 3037 3038 3038 3038 3038 3038 3039
3061 3060 3059 3058 3058 3057 3056 3055 3054 3053 3052 3051 3050 3049 3048 3048 3047 3047 3046 3045 3045 3044 3044 3043 3043 3042 3042 3041 3041 3041 3040 3040 3039 3039 3039 3038 3038 3038 3038 3037 3037 3037 3036 3036 3035 3035 3035 3035 3035 3035 3034 3034 3034 3034 3034 3033 3033 3033 3033 3033 3033 3032 3032 3032 3032 3032 3033 3033 3033 3033 3033 3033 3033 3033 3033 3033 3033 3034 3034 3034 3034 3034 3035 3035 3035 3035
3060 3059 3058 3057 3056 3055 3054 3053 3053 3052 3051 3050 3049 3048 3048 3047 3046 3045 3045 3044 3043 3043 3043 3042 3041 3041 3040 3040 3039 3039 3039 3038 3038 3038 3037 3037 3037 3036 3036 3036 3035 3035 3035 3034 3034 3034 3034 3033 3033 3033 3033 3033 3032 3032 3032 3032 3031 3031 3031 3030 3030 3030 3030 3030 3030 3030 3030 3030 3030 3030 3030 3030 3030 3030 3030 3030 3030 3031 3031 3031 3031 3031 3032 3032 3032 3032
3058 3058 3057 3056 3055 3054 3053 3052 3051 3050 3050 3049 3048 3047 3046 3046 3045 3044 3043 3043 3042 3042 3041 3040 3040 3039 3039 3038 3038 3037 3037 3036 3036 3036 3035 3035 3034 3034 3034 3034 3033 3033 3033 3033 3033 3032 3032 3032 3031 3031 3031 3030 3030 3030 3029 3029 3028 3028 3028 3028 3028 3028 3028 3027 3027 3027 3027 3027 3027 3027 3027 3027 3027 3027 3027 3028 3028 3028 3028 3028 3028 3028 3028 3028 3028 3028
3057 3056 3055 3054 3053 3053 3052 3051 3050 3049 3048 3048 3047 3046 3045 3044 3044 3043 3042 3041 3041 3040 3039 3039 3038 3038 3037 3036 3036 3035 3035 3034 3034 3033 3033 3033 3032 3032 3032 3031 3031 3031 3031 3030 3030 3030 3029 3029 3029 3028 3028 3028 3028 3027 3027 3026 3026 3026 3025 3025 3025 3025 3025 3025 3025 3025 3025 3024 3024 3024 3024 3024 3024 3025 3025 3025 3025 3025 3025 3025 3025 3025 3026 3026 3026 3026
3055 3054 3053 3053 3052 3051 3050 3049 3048 3048 3047 3046 3045 3044 3043 3043 3042 3042 3041 3040 3039 3038 3038 3037 3036 3036 3035 3034 3034 3033 3033 3032 3032 3031 3031 3030 3030 3029 3029 3028 3028 3028 3028 3028 3027 3027 3027 3026 3026 3026 3025 3025 3024 3024 3023 3023 3023 3023 3023 3023 3023 3023 3023 3022 3022 3022 3022 3022 3022 3022 3022 3022 3022 3022 3023 3023 3023 3023 3023 3023 3023 3023 3023 3023 3023 3024
3054 3053 3052 3051 3050 3050 3048 3048 3047 3046 3045 3044 3043 3042 3042 3041 3040 3040 3039 3038 3037 3036 3036 3035 3034 3034 3033 3032 3032 3031 3031 3030 3029 3029 3028 3028 3027 3027 3026 3026 3026 3025 3025 3025 3024 3024 3023 3023 3023 3023 3022 3022 3022 3021 3021 3020 3020 3020 3020 3020 3020 3020 3020 3020 3020 3020 3020 3020 3020 3020 3020 3020 3020 3020 3021 3021 3021 3021 3021 3021 3021 3021 3021 3022 3022 3022
3052 3051 3051 3050 3049 3048 3047 3046 3045 3044 3043 3042 3041 3041 3040 3039 3038 3038 3037 3036 3035 3034 3033 3033 3032 3031 3031 3030 3030 3029 3028 3028 3027 3027 3026 3025 3025 3024 3024 3023 3023 3023 3023 3022 3022 3021 3021 3020 3020 3020 3019 3019 3018 3018 3018 3018 3018 3018 3018 3018 3018 3018 3018 3018 3018 3018 3018 3018 3018 3018 3018 3018 3019 3019 3019 3019 3019 3019 3019 3019 3019 3020 3020 3020 3020 3020
3051 3050 3049 3048 3047 3046 3045 3045 3044 3043 3042 3041 3040 3039 3038 3038 3037 3036 3035 3034 3033 3033 3032 3031 3030 3029 3028 3028 3028 3027 3026 3026 3025 3024 3024 3023 3022 3022 3021 3021 3020 3020 3020 3019 3019 3018 3018 3018 3017 3017 3017 3016 3016 3016 3016 3016 3016 3016 3016 3016 3016 3016 3016 3016 3016 3016 3017 3017 3017 3017 3017 3017 3017 3017 3018 3018 3018 3018 3018 3018 3018 3018 3018 3018 3018 3018
3049 3048 3048 3047 3046 3045 3044 3043 3042 3041 3040 3039 3038 3038 3037 3036 3035 3034 3033 3032 3032 3031 3030 3029 3028 3027 3027 3026 3025 3025 3024 3024 3023 3023 3022 3021 3020 3019 3018 3018 3018 3018 3018 3017 3017 3016 3016 3015 3015 3015 3014 3014 3014 3014 3014 3014 3014 3014 3014 3014 3014 3014 3015 3015 3015 3015 3015 3015 3015 3015 3016 3016 3016 3016 3016 3016 3016 3016 3016 3016 3016 3016 3016 3016 3016 3016
3048 3047 3047 3046 3045 3044 3043 3042 3041 3040 3039 3038 3037 3036 3035 3034 3033 3033 3032 3031 3030 3029 3028 3027 3026 3025 3024 3024 3023 3023 3022 3022 3021 3021 3020 3019 3018 3017 3016 3016 3016 3016 3015 3015 3014 3014 3013 3013 3013 3013 3013 3013 3013 3013 3013 3013 3013 3013 3013 3013 3013 3013 3013 3013 3013 3014 3014 3014 3014 3014 3014 3014 3014 3014 3014 3014 3014 3014 3014 3014 3014 3014 3014 3014 3014 3014
3047 3046 3045 3044 3043 3043 3041 3040 3039 3038 3038 3037 3036 3034 3033 3033 3032 3031 3030 3029 3028 3027 3026 3025 3024 3023 3023 3022 3021 3020 3020 3019 3019 3019 3018 3017 3015 3014 3014 3014 3014 3014 3013 3013 3012 3012 3012 3011 3011 3011 3011 3011 3012 3012 3012 3012 3012 3012 3012 3012 3012 3012 3012 3012 3012 3012 3012 3012 3012 3012 3012 3012 3012 3012 3012 3012 3012 3012 3012 3012 3012 3012 3012 3012 3013 3013
3046 3045 3044 3043 3042 3041 3040 3039 3038 3037 3036 3035 3034 3033 3032 3031 3030 3029 3028 3027 3026 3025 3024 3024 3023 3022 3021 3020 3019 3018 3018 3017 3017 3017 3016 3015 3013 3012 3012 3012 3012 3012 3011 3011 3010 3010 3010 3010 3010 3010 3010 3010 3010 3010 3011 3011 3011 3011 3011 3011 3011 3011 3011 3011 3011 3011 3011 3011 3011 3011 3011 3011 3011 3011 3011 3011 3011 3011 3011 3011 3011 3011 3011 3011 3011 3011
3045 3043 3043 3042 3041 3040 3038 3038 3037 3036 3035 3033 3033 3032 3031 3030 3029 3028 3027 3026 3025 3024 3023 3022 3021 3020 3019 3018 3017 3017 3016 3015 3015 3014 3014 3013 3011 3010 3010 3010 3010 3010 3009 3009 3009 3009 3008 3008 3008 3009 3009 3009 3009 3009 3009 3009 3009 3009 3009 3009 3009 3009 3009 3009 3009 3009 3009 3009 3009 3009 3009 3009 3009 3009 3009 3009 3009 3009 3009 3009 3009 3009 3009 3010 3010 3010
3043 3042 3041 3040 3039 3038 3037 3036 3035 3034 3033 3032 3031 3030 3029 3028 3027 3026 3025 3024 3023 3022 3021 3020 3019 3018 3018 3017 3016 3015 3014 3013 3013 3013 3012 3011 3009 3008 3009 3009 3009 3008 3008 3008 3008 3008 3008 3007 3008 3008 3008 3008 3008 3008 3008 3008 3008 3008 3008 3008 3008 3008 3008 3008 3008 3008 3008 3008 3008 3008 3008 3008 3008 3008 3008 3008 3008 3008 3008 3008 3008 3008 3008 3008 3008 3008
3042 3041 3040 3038 3038 3037 3036 3034 3033 3033 3031 3031 3030 3029 3028 3027 3026 3025 3023 3023 3022 3020 3019 3018 3018 3017 3016 3015 3014 3013 3012 3012 3011 3011 3010 3009 3008 3007 3007 3008 3007 3007 3007 3007 3007 3006 3006 3006 3006 3007 3007 3007 3007 3007 3007 3007 3007 3007 3007 3007 3007 3007 3007 3007 3007 3007 3007 3007 3007 3007 3006 3006 3006 3006 3006 3006 3006 3006 3006 3006 3006 3006 3007 3007 3007 3007
3040 3039 3038 3037 3036 3035 3034 3033 3032 3031 3030 3029 3028 3027 3026 3025 3024 3023 3022 3021 3020 3019 3018 3017 3016 3015 3014 3013 3012 3011 3011 3010 3009 3009 3008 3007 3006 3006 3006 3006 3006 3006 3005 3005 3005 3005 3005 3005 3005 3005 3006 3006 3006 3006 3005 3005 3005 3005 3005 3005 3005 3005 3005 3005 3005 3005 3005 3005 3005 3005 3005 3005 3005 3005 3005 3005 3005 3005 3005 3005 3005 3005 3004 3004 3004 3004
3039 3038 3037 3036 3035 3033 3033 3032 3031 3029 3028 3028 3027 3026 3024 3023 3023 3022 3020 3019 3018 3017 3016 3015 3014 3013 3012 3011 3010 3010 3009 3008 3008 3007 3006 3006 3005 3004 3005 3005 3005 3004 3004 3004 3004 3004 3004 3004 3004 3004 3004 3004 3004 3004 3004 3004 3004 3004 3004 3004 3004 3004 3004 3004 3004 3004 3004 3003 3003 3003 3003 3003 3003 3003 3003 3003 3003 3003 3003 3003 3003 3003 3003 3002 3002 3002
3037 3036 3035 3034 3033 3032 3031 3030 3029 3028 3027 3026 3025 3024 3023 3022 3021 3020 3019 3018 3017 3016 3015 3014 3013 3012 3010 3009 3008 3008 3007 3006 3006 3005 3005 3004 3003 3003 3003 3003 3003 3003 3003 3003 3003 3003 3003 3003 3003 3003 3003 3003 3003 3003 3002 3002 3002 3002 3002 3002 3002 3002 3002 3002 3002 3002 3002 3002 3002 3002 3002 3001 3001 3001 3001 3001 3001 3001 3000 3000 3000 3000 3000 3000 3000 3000
3036 3035 3034 3033 3032 3031 3030 3028 3028 3027 3026 3025 3023 3023 3022 3020 3019 3018 3017 3016 3015 3014 3013 3012 3011 3010 3008 3008 3007 3006 3005 3005 3004 3003 3003 3003 3002 3002 3002 3002 3002 3002 3002 3001 3001 3001 3001 3001 3001 3001 3001 3001 3001 3001 3001 3001 3000 3000 3000 3000 3000 3000 3000 3000 3000 3000 3000 3000 3000 3000 3000 2999 2999 2999 2999 2999 2998 2998 2998 2998 2998 2998 2998 2998 2998 2998
3034 3033 3032 3031 3030 3029 3028 3027 3026 3025 3024 3023 3022 3021 3020 3019 3018 3016 3015 3014 3013 3012 3011 3010 3009 3008 3007 3006 3005 3004 3003 3003 3003 3002 3002 3001 3001 3000 3000 3001 3001 3001 3000 3000 3000 3000 3000 3000 3000 3000 3000 2999 2999 2999 2999 2999 2998 2998 2998 2998 2998 2998 2998 2998 2998 2998 2998 2998 2998 2998 2998 2997 2997 2997 2997 2997 2996 2996 2996 2996 2996 2996 2996 2996 2996 2996
3032 3031 3030 3029 3028 3028 3026 3025 3024 3023 3023 3022 3021 3020 3018 3018 3016 3015 3013 3012 3011 3010 3009 3008 3007 3006 3005 3004 3003 3002 3002 3002 3001 3001 3000 3000 2999 2999 2999 2999 2999 2999 2999 2998 2998 2998 2998 2998 2998 2998 2998 2998 2998 2997 2997 2997 2997 2997 2997 2997 2997 2997 2996 2996 2996 2996 2996 2996 2996 2996 2995 2995 2995 2995 2994 2994 2994 2994 2994 2994 2993 2993 2993 2993 2993 2993
3031 3030 3029 3028 3027 3026 3024 3023 3023 3022 3020 3019 3018 3018 3017 3016 3015 3013 3012 3010 3009 3008 3007 3006 3005 3004 3003 3002 3001 3001 3000 3000 3000 2999 2999 2998 2998 2998 2998 2998 2998 2998 2997 2997 2996 2996 2996 2996 2996 2996 2996 2996 2995 2995 2995 2995 2995 2995 2995 2994 2994 2994 2994 2994 2994 2994 2994 2993 2993 2993 2993 2993 2993 2993 2992 2992 2992 2992 2992 2992 2991 2991 2991 2991 2991 2991
3029 3028 3027 3026 3025 3024 3023 3022 3020 3019 3018 3017 3016 3015 3014 3013 3013 3011 3010 3009 3008 3006 3005 3004 3003 3003 3002 3001 3000 2999 2998 2998 2998 2998 2997 2997 2997 2997 2996 2996 2996 2996 2995 2995 2995 2995 2995 2995 2994 2994 2994 2994 2993 2993 2993 2993 2993 2993 2993 2993 2992 2992 2992 2992 2992 2991 2991 2991 2991 2991 2991 2991 2990 2990 2990 2990 2990 2990 2989 2989 2989 2989 2989 2989 2989 2989
3027 3026 3025 3024 3023 3022 3021 3020 3018 3017 3016 3015 3014 3013 3012 3011 3010 3009 3008 3007 3006 3004 3003 3003 3002 3001 3000 2999 2998 2997 2997 2996 2996 2996 2996 2996 2996 2995 2995 2994 2994 2994 2994 2993 2993 2993 2993 2993 2993 2993 2992 2992 2991 2991 2991 2991 2991 2991 2990 2990 2990 2990 2989 2989 2989 2989 2989 2988 2988 2988 2988 2988 2988 2988 2988 2988 2988 2988 2987 2987 2987 2987 2987 2987 2987 2987
3025 3024 3023 3022 3021 3020 3019 3018 3017 3015 3014 3013 3012 3011 3009 3008 3008 3007 3005 3004 3003 3002 3001 3000 2999 2999 2998 2997 2996 2996 2995 2994 2994 2994 2994 2994 2994 2994 2993 2993 2992 2992 2992 2992 2992 2991 2991 2991 2991 2990 2990 2990 2989 2989 2989 2988 2988 2988 2988 2988 2988 2987 2987 2987 2986 2986 2986 2986 2986 2986 2986 2986 2986 2986 2985 2985 2985 2985 2985 2985 2984 2984 2984 2984 2984 2984
3023 3022 3021 3020 3019 3018 3017 3016 3015 3013 3013 3011 3010 3009 3008 3006 3005 3004 3003 3002 3001 3000 2999 2998 2998 2997 2996 2995 2995 2994 2993 2992 2992 2992 2993 2993 2993 2992 2992 2991 2991 2990 2990 2990 2990 2990 2989 2989 2989 2988 2988 2988 2987 2987 2987 2986 2986 2986 2986 2985 2985 2985 2984 2984 2984 2984 2983 2983 2983 2983 2983 2983 2983 2983 2983 2983 2983 2983 2983 2982 2982 2982 2982 2982 2982 2982
3022 3020 3019 3018 3017 3016 3015 3014 3013 3012 3010 3009 3008 3007 3006 3004 3003 3002 3001 3000 2999 2998 2997 2996 2995 2995 2994 2993 2993 2993 2992 2990 2990 2990 2991 2991 2991 2990 2990 2989 2989 2988 2988 2988 2988 2988 2988 2988 2987 2987 2986 2986 2985 2985 2984 2984 2984 2984 2983 2983 2983 2982 2982 2982 2982 2981 2981 2981 2981 2980 2980 2980 2980 2980 2980 2980 2979 2979 2979 2979 2979 2979 2979 2979 2979 2979
3020 3019 3018 3017 3015 3014 3013 3012 3011 3010 3008 3007 3006 3005 3004 3003 3001 3000 2999 2998 2997 2996 2995 2994 2993 2993 2992 2992 2991 2991 2990 2989 2988 2988 2989 2989 2989 2988 2988 2988 2987 2987 2987 2987 2987 2987 2987 2987 2986 2985 2985 2984 2984 2983 2983 2982 2982 2982 2982 2981 2981 2980 2980 2979 2979 2979 2978 2978 2978 2978 2977 2977 2977 2976 2976 2976 2976 2976 2976 2976 2976 2976 2976 2975 2976 2976
3018 3017 3016 3015 3014 3013 3011 3010 3009 3008 3007 3005 3004 3003 3002 3001 2999 2998 2997 2996 2995 2994 2993 2992 2992 2991 2990 2990 2989 2989 2988 2987 2987 2986 2987 2987 2987 2987 2986 2986 2985 2985 2985 2984 2984 2984 2985 2985 2985 2984 2984 2983 2983 2982 2981 2981 2980 2980 2980 2979 2979 2978 2978 2978 2977 2977 2976 2976 2976 2975 2975 2974 2974 2974 2973 2973 2973 2973 2973 2973 2973 2972 2972 2972 2972 2972
3016 3015 3014 3013 3012 3011 3009 3008 3007 3006 3005 3003 3002 3001 3000 2998 2998 2996 2995 2994 2993 2992 2991 2990 2990 2989 2988 2988 2988 2987 2986 2985 2985 2984 2985 2985 2985 2984 2984 2984 2983 2983 2983 2983 2983 2983 2983 2983 2983 2983 2983 2983 2982 2981 2980 2979 2979 2979 2978 2978 2978 2977 2977 2976 2976 2975 2975 2974 2974 2973 2973 2972 2972 2971 2971 2970 2970 2970 2970 2969 2969 2969 2969 2969 2969 2969
3014 3013 3012 3011 3010 3009 3008 3007 3005 3004 3003 3002 3000 2999 2998 2997 2995 2994 2993 2992 2991 2990 2989 2988 2988 2987 2987 2986 2986 2985 2984 2983 2983 2983 2983 2983 2983 2982 2982 2982 2981 2981 2981 2980 2980 2980 2980 2981 2981 2981 2981 2981 2981 2980 2979 2979 2978 2978 2977 2977 2976 2976 2975 2974 2974 2973 2973 2973 2972 2971 2970 2970 2969 2969 2968 2968 2968 2967 2967 2967 2966 2966 2966 2966 2965 2965
3013 3011 3010 3009 3008 3007 3006 3005 3003 3002 3001 3000 2998 2997 2996 2995 2993 2993 2991 2990 2989 2988 2988 2987 2986 2985 2985 2984 2984 2983 2983 2982 2981 2981 2980 2980 2980 2980 2980 2980 2979 2979 2978 2978 2978 2978 2978 2978 2978 2978 2979 2979 2979 2978 2978 2978 2977 2976 2976 2975 2974 2974 2973 2973 2972 2971 2971 2970 2970 2969 2968 2968 2967 2966 2966 2965 2965 2964 2964 2963 2963 2963 2963 2962 2962 2962
3011 3010 3008 3008 3006 3005 3004 3003 3002 3000 2999 2998 2997 2995 2994 2993 2992 2991 2990 2988 2988 2987 2986 2985 2984 2984 2983 2983 2982 2981 2981 2980 2979 2979 2978 2978 2978 2978 2978 2978 2977 2977 2976 2976 2976 2976 2976 2976 2976 2976 2976 2976 2976 2976 2976 2975 2975 2974 2974 2973 2972 2972 2971 2970 2969 2969 2968 2968 2968 2967 2966 2965 2965 2964 2963 2963 2962 2962 2961 2961 2960 2960 2959 2959 2959 2959
3009 3008 3007 3006 3004 3003 3002 3001 3000 2999 2998 2996 2995 2994 2993 2991 2990 2989 2988 2987 2986 2985 2984 2983 2983 2982 2981 2981 2980 2979 2979 2978 2978 2977 2977 2976 2976 2976 2976 2975 2975 2974 2974 2974 2973 2973 2973 2973 2973 2974 2974 2974 2974 2973 2973 2973 2973 2972 2971 2971 2970 2969 2968 2968 2967 2966 2966 2965 2965 2964 2963 2963 2962 2962 2961 2961 2960 2959 2959 2958 2958 2957 2956 2956 2956 2956
3008 3006 3005 3004 3003 3002 3001 2999 2998 2997 2996 2994 2993 2992 2991 2990 2988 2987 2986 2985 2984 2983 2982 2982 2981 2980 2979 2979 2978 2977 2977 2976 2976 2975 2975 2974 2973 2973 2973 2973 2973 2972 2972 2972 2971 2971 2971 2971 2971 2971 2971 2971 2971 2971 2971 2970 2970 2969 2968 2968 2968 2967 2967 2966 2965 2964 2963 2963 2962 2961 2961 2960 2960 2959 2958 2958 2958 2957 2956 2956 2955 2954 2954 2953 2953 2953
3006 3004 3003 3002 3001 3000 2999 2998 2996 2995 2994 2993 2992 2990 2989 2988 2987 2986 2984 2983 2982 2981 2981 2980 2979 2978 2978 2977 2976 2975 2974 2974 2973 2973 2972 2972 2971 2971 2971 2970 2970 2970 2969 2969 2969 2968 2968 2968 2968 2968 2968 2968 2968 2968 2968 2968 2967 2966 2965 2965 2965 2964 2964 2963 2962 2961 2961 2960 2959 2958 2958 2957 2957 2956 2956 2955 2955 2954 2953 2953 2953 2952 2952 2951 2950 2950
3004 3003 3002 3000 2999 2998 2997 2996 2994 2993 2992 2991 2990 2988 2987 2986 2985 2984 2983 2982 2980 2979 2979 2978 2977 2977 2976 2975 2973 2973 2972 2971 2971 2970 2970 2969 2969 2968 2968 2968 2967 2967 2967 2967 2966 2966 2966 2965 2965 2965 2965 2965 2965 2965 2965 2965 2964 2963 2962 2962 2962 2961 2961 2961 2960 2959 2958 2957 2956 2956 2955 2954 2954 2953 2953 2953 2952 2951 2951 2950 2950 2949 2949 2948 2948 2948
3002 3001 3000 2998 2997 2996 2995 2994 2993 2991 2990 2989 2988 2987 2985 2984 2983 2982 2981 2980 2979 2978 2977 2976 2975 2974 2973 2973 2971 2970 2969 2968 2968 2967 2967 2967 2967 2966 2966 2965 2965 2964 2964 2964 2963 2963 2963 2963 2963 2962 2962 2962 2962 2962 2962 2962 2961 2960 2959 2958 2958 2958 2958 2958 2957 2956 2955 2954 2953 2953 2952 2951 2951 2950 2950 2949 2949 2948 2948 2947 2947 2947 2946 2946 2945 2945
3000 2999 2998 2997 2995 2994 2993 2992 2991 2989 2988 2987 2986 2985 2983 2982 2981 2980 2979 2978 2977 2976 2975 2974 2973 2972 2971 2970 2969 2968 2967 2966 2965 2964 2964 2964 2963 2963 2963 2963 2962 2962 2961 2961 2961 2960 2960 2960 2960 2959 2959 2959 2959 2959 2959 2958 2958 2957 2956 2956 2955 2955 2955 2954 2954 2953 2953 2952 2951 2950 2949 2948 2948 2947 2947 2947 2946 2946 2945 2945 2944 2944 2943 2943 2942 2942
2998 2997 2996 2995 2993 2992 2991 2990 2989 2988 2986 2985 2984 2983 2981 2980 2979 2978 2977 2976 2975 2974 2973 2972 2971 2970 2969 2968 2967 2966 2965 2964 2963 2962 2961 2961 2960 2960 2960 2959 2959 2959 2958 2958 2958 2958 2957 2957 2957 2957 2956 2956 2956 2956 2955 2955 2954 2954 2953 2953 2952 2952 2951 2951 2950 2950 2949 2948 2948 2947 2946 2945 2944 2944 2944 2944 2943 2943 2942 2942 2941 2941 2941 2940 2939 2939
2996 2995 2994 2993 2992 2990 2989 2988 2987 2985 2984 2983 2982 2980 2979 2978 2977 2976 2975 2974 2973 2972 2971 2970 2969 2968 2967 2966 2965 2964 2963 2962 2960 2959 2958 2957 2957 2957 2957 2956 2956 2955 2955 2955 2954 2954 2954 2954 2954 2953 2953 2953 2953 2953 2952 2952 2951 2950 2950 2949 2949 2948 2948 2948 2947 2946 2945 2945 2944 2943 2943 2942 2941 2941 2941 2941 2940 2940 2940 2939 2939 2938 2938 2938 2937 2936
2994 2993 2992 2991 2989 2988 2987 2986 2984 2983 2982 2981 2979 2978 2977 2976 2975 2973 2973 2972 2971 2970 2968 2968 2967 2966 2965 2964 2963 2962 2961 2960 2958 2957 2956 2955 2954 2953 2953 2953 2953 2952 2952 2952 2951 2951 2951 2951 2951 2951 2950 2950 2950 2950 2949 2948 2948 2947 2946 2946 2946 2945 2945 2944 2943 2943 2942 2941 2941 2940 2939 2939 2938 2938 2938 2937 2937 2937 2937 2937 2936 2936 2935 2935 2934 2934
2993 2991 2990 2989 2988 2986 2985 2984 2983 2981 2980 2979 2977 2976 2975 2974 2973 2971 2970 2969 2968 2967 2966 2965 2965 2964 2963 2962 2961 2959 2958 2958 2956 2955 2954 2953 2952 2951 2950 2949 2949 2948 2948 2948 2948 2948 2948 2948 2948 2948 2948 2947 2947 2946 2946 2945 2944 2943 2943 2943 2942 2942 2941 2941 2940 2939 2938 2938 2937 2937 2936 2935 2935 2934 2934 2934 2934 2934 2934 2934 2933 2933 2933 2932 2932 2931
2991 2989 2988 2987 2986 2984 2983 2982 2980 2979 2978 2977 2975 2974 2973 2972 2970 2969 2968 2967 2966 2965 2964 2963 2963 2962 2961 2959 2958 2957 2956 2955 2954 2953 2952 2950 2949 2948 2948 2947 2946 2945 2945 2944 2944 2944 2944 2944 2945 2945 2944 2944 2943 2943 2942 2942 2941 2941 2940 2939 2939 2938 2938 2937 2937 2936 2935 2935 2934 2933 2933 2932 2932 2931 2931 2931 2931 2931 2931 2931 2931 2931 2930 2929 2929 2928
2988 2988 2986 2985 2984 2983 2981 2980 2978 2977 2976 2975 2973 2972 2970 2969 2968 2967 2966 2965 2963 2963 2962 2961 2960 2959 2958 2957 2956 2955 2954 2953 2952 2950 2949 2948 2947 2946 2945 2944 2943 2943 2942 2942 2941 2941 2941 2942 2942 2942 2942 2941 2940 2939 2939 2938 2938 2938 2937 2937 2936 2935 2934 2934 2933 2933 2932 2932 2931 2930 2930 2929 2929 2928 2928 2927 2927 2928 2928 2928 2928 2928 2928 2927 2926 2926
2987 2985 2984 2983 2982 2980 2979 2978 2976 2975 2974 2973 2971 2970 2968 2967 2966 2964 2963 2962 2961 2960 2959 2958 2958 2957 2956 2955 2954 2953 2952 2951 2950 2948 2947 2946 2945 2944 2943 2942 2941 2940 2940 2939 2939 2938 2939 2939 2939 2940 2939 2938 2938 2936 2936 2936 2935 2935 2934 2934 2933 2932 2932 2931 2930 2930 2929 2928 2928 2928 2927 2927 2926 2925 2925 2924 2924 2924 2924 2925 2925 2925 2925 2924 2923 2923